sat.trackr.live / text

‹ back to catalog

STARLINK-32720

NORAD 62451 · 2024-251V

PAYLOAD ACTIVE UNKNOWN

§ Identity

Operator
Country
US
Launch date
2024-12-29
Launch site
AFWTR
Launch vehicle
Mass (kg)
RCS (m²)

Purposes: comms

External: N2YO · Heavens-Above · Gunter

§ Orbital elements

Epoch: 2026-09-21T20:29:05.293536Z

Period
93.85 min
Inclination
53.1588°
Eccentricity
0.0001685
Mean motion
15.34406093 rev/d
Perigee alt
461.5 km
Apogee alt
463.8 km
Semi-major
6,840.8 km
B*
4.8635e-4
RAAN
141.1893°
Arg perigee
87.6547°
Mean anomaly
272.4649°
Rev number
9,765

§ Raw data

STARLINK-327201 62451U 24251V   26264.85353349  .00016094  00000+0  48635-3 0  99902 62451  53.1588 141.1893 0001685  87.6547 272.4649 15.34406093 97650

JSON: /api/v1/satellites/62451 · /tle

For live sub-satellite position, see the globe view (requires WebGL).

§ Visibility from observer

Set your observer location to see the next 7 days of passes ≥ 10°. The values pass through the URL so the page stays shareable.

No JS? Fill the form by hand. The geolocation button needs JavaScript.